Bangkok (Suvarnabhumi), Thailand

10:43 PM +07 on April 23, 2018 (GMT +0700)
Bangkok (Suvarnabhumi)

Weather History for VTBS - December, 2011

Change the Weather History Date:

Saturday, December 10, 2011

  Actual Average (VTBU) Record (VTBU)
Temperature  
Mean Temperature 79 °F -  
Max Temperature 88 °F 89 °F 95 °F (2006)
Min Temperature 70 °F 69 °F 68 °F (1999)
Cooling Degree Days 14    
Growing Degree Days 29 (Base 50)    
Moisture  
Dew Point 61 °F    
Average Humidity 55    
Maximum Humidity 86    
Minimum Humidity 37    
Precipitation  
Precipitation 0.00 in 0.01 in - ()
Sea Level Pressure  
Sea Level Pressure 29.91 in    
Wind  
Wind Speed 11 mph ()    
Max Wind Speed 20 mph    
Max Gust Speed 31 mph    
Visibility 6.2 miles    
Events      
Averages and records for this station are not official NWS values.
T = Trace of Precipitation, MM = Missing Value Source: Averaged Metar Reports

Daily Weather History Graph

Daily Weather History Graph

Search for Another Location

Airport or City:

Astronomy

Dec. 10, 2011 Rise Set
Actual Time 6:27 AM +07 5:49 PM +07
Civil Twilight 6:04 AM +07 6:12 PM +07
Nautical Twilight 5:38 AM +07 6:38 PM +07
Astronomical Twilight 5:11 AM +07 7:05 PM +07
Moon 5:38 PM +07 (12/10) 5:58 AM +07 (12/10)
Length of Visible Light 12h 07m
Length of Day
11h 21m
Full, 100% of the Moon is Illuminated
Dec 10
Full
Dec 10
Full
Dec 18
Last Quarter
Dec 25
New
Jan 1
First Quarter

Hourly Weather History & Observations

Time (+07) Temp. Heat Index Dew Point Humidity Pressure Visibility Wind Dir Wind Speed Gust Speed Precip Events Conditions
12:00 AM 80.6 °F 82.3 °F 64.4 °F 58% 29.92 in 6.2 mi ENE 11.5 mph - N/A   Scattered Clouds
12:30 AM 80.6 °F 82.3 °F 64.4 °F 58% 29.92 in 6.2 mi ENE 10.4 mph - N/A   Scattered Clouds
1:00 AM 77 °F - 74 °F 86% 29.89 in 6 mi ENE 5.8 mph - -  
1:00 AM 78.8 °F - 64.4 °F 61% 29.92 in 6.2 mi ENE 11.5 mph - N/A   Scattered Clouds
1:30 AM 78.8 °F - 62.6 °F 57% 29.89 in 6.2 mi ENE 13.8 mph 25.3 mph N/A   Partly Cloudy
2:00 AM 77.0 °F - 62.6 °F 61% 29.89 in 6.2 mi ENE 12.7 mph - N/A   Partly Cloudy
2:30 AM 77.0 °F - 62.6 °F 61% 29.89 in 6.2 mi East 12.7 mph 24.2 mph N/A   Partly Cloudy
3:00 AM 77.0 °F - 60.8 °F 57% 29.89 in 6.2 mi East 15.0 mph 26.5 mph N/A   Partly Cloudy
3:30 AM 75.2 °F - 60.8 °F 61% 29.86 in - East 13.8 mph - N/A   Clear
4:00 AM 75.2 °F - 60.8 °F 61% 29.86 in - ENE 13.8 mph 26.5 mph N/A   Clear
4:30 AM 75.2 °F - 59.0 °F 57% 29.86 in - ENE 13.8 mph - N/A   Clear
5:00 AM 73.4 °F - 60.8 °F 65% 29.89 in - ENE 11.5 mph - N/A   Clear
5:30 AM 73.4 °F - 60.8 °F 65% 29.89 in - East 11.5 mph - N/A   Clear
6:00 AM 73.4 °F - 60.8 °F 65% 29.89 in - ENE 10.4 mph - N/A   Clear
6:30 AM 73.4 °F - 59.0 °F 61% 29.89 in - East 12.7 mph - N/A   Clear
7:00 AM 70 °F - 64 °F 77% 29.90 in 6 mi ENE 9.2 mph - -  
7:00 AM 73.4 °F - 59.0 °F 61% 29.92 in - East 12.7 mph - N/A   Clear
7:30 AM 73.4 °F - 59.0 °F 61% 29.92 in - East 13.8 mph - N/A   Clear
8:00 AM 73.4 °F - 59.0 °F 61% 29.95 in - East 16.1 mph - N/A   Clear
8:30 AM 75.2 °F - 59.0 °F 57% 29.95 in - East 17.3 mph - N/A   Clear
9:00 AM 75.2 °F - 59.0 °F 57% 29.95 in - ENE 15.0 mph - N/A   Clear
9:30 AM 77.0 °F - 57.2 °F 50% 29.98 in - East 16.1 mph - N/A   Clear
10:00 AM 77.0 °F - 57.2 °F 50% 29.98 in - ENE 19.6 mph - N/A   Clear
10:30 AM 78.8 °F - 57.2 °F 47% 29.98 in - ENE 17.3 mph - N/A   Clear
11:00 AM 78.8 °F - 57.2 °F 47% 29.95 in - ENE 17.3 mph 31.1 mph N/A   Clear
11:30 AM 80.6 °F 81.1 °F 59.0 °F 48% 29.95 in - East 16.1 mph - N/A   Clear
12:00 PM 82.4 °F 82.5 °F 59.0 °F 45% 29.95 in - NE 16.1 mph - N/A   Clear
12:30 PM 80.6 °F 81.1 °F 59.0 °F 48% 29.92 in - NE 13.8 mph - N/A   Unknown
1:00 PM 86 °F - 64 °F 37% 29.87 in 7 mi ENE 9.2 mph - -  
1:00 PM 82.4 °F 82.5 °F 59.0 °F 45% 29.89 in - NE 12.7 mph 24.2 mph N/A   Clear
1:30 PM 82.4 °F 82.5 °F 59.0 °F 45% 29.89 in 6.2 mi ENE 12.7 mph - N/A   Partly Cloudy
2:00 PM 82.4 °F 82.5 °F 59.0 °F 45% 29.86 in 6.2 mi NNE 13.8 mph - N/A   Partly Cloudy
3:00 PM 84.2 °F 83.8 °F 59.0 °F 42% 29.86 in 6.2 mi NNE 10.4 mph - N/A   Scattered Clouds
3:30 PM 84.2 °F 84.4 °F 60.8 °F 45% 29.86 in 6.2 mi NE 8.1 mph - N/A   Scattered Clouds
4:00 PM 84.2 °F 84.4 °F 60.8 °F 45% 29.86 in 6.2 mi NE 8.1 mph - N/A   Scattered Clouds
4:30 PM 84.2 °F 84.4 °F 60.8 °F 45% 29.86 in 6.2 mi NNE 8.1 mph - N/A   Scattered Clouds
5:00 PM 84.2 °F 84.4 °F 60.8 °F 45% 29.86 in 6.2 mi NNE 8.1 mph - N/A   Scattered Clouds
5:30 PM 82.4 °F 82.9 °F 60.8 °F 48% 29.86 in 6.2 mi North 6.9 mph - N/A   Scattered Clouds
6:00 PM 80.6 °F 81.8 °F 62.6 °F 54% 29.86 in 6.2 mi North 5.8 mph - N/A   Scattered Clouds
6:30 PM 78.8 °F - 62.6 °F 57% 29.89 in 6.2 mi North 5.8 mph - N/A   Scattered Clouds
7:00 PM 82 °F - 65 °F 48% 29.88 in 7 mi NE 2.3 mph - -  
7:00 PM 78.8 °F - 62.6 °F 57% 29.89 in 6.2 mi North 4.6 mph - N/A   Scattered Clouds
7:30 PM 78.8 °F - 60.8 °F 54% 29.92 in 6.2 mi North 5.8 mph - N/A   Scattered Clouds
8:00 PM 78.8 °F - 60.8 °F 54% 29.92 in 6.2 mi North 5.8 mph - N/A   Scattered Clouds
8:30 PM 82.4 °F 82.9 °F 60.8 °F 48% 29.92 in 6.2 mi NE 9.2 mph - N/A   Scattered Clouds
9:00 PM 80.6 °F 81.8 °F 62.6 °F 54% 29.92 in - ENE 11.5 mph - N/A   Clear
9:30 PM 80.6 °F 81.5 °F 60.8 °F 51% 29.95 in - ENE 10.4 mph - N/A   Clear
10:00 PM 78.8 °F - 60.8 °F 54% 29.95 in - NE 10.4 mph - N/A   Clear
10:30 PM 77.0 °F - 60.8 °F 57% 29.95 in - NE 9.2 mph - N/A   Clear
11:00 PM 77.0 °F - 59.0 °F 54% 29.95 in - ENE 9.2 mph - N/A   Clear
11:30 PM 77.0 °F - 60.8 °F 57% 29.95 in - ENE 9.2 mph - N/A   Clear